Weather History for New Iberia, LA

Change the Weather History Date:

Wednesday, October 23, 2013

  Actual Average Record
Temperature  
Mean Temperature 65 °F 68 °F  
Max Temperature 79 °F 80 °F 89 °F (2003)
Min Temperature 51 °F 56 °F 36 °F (1952)
Degree Days  
Heating Degree Days 0 2  
Month to date heating degree days 0 14  
Since 1 July heating degree days 0 15  
Cooling Degree Days 0 5  
Month to date cooling degree days 216 158  
Year to date cooling degree days 3094 2714  
Growing Degree Days 14 (Base 50)    
Moisture  
Dew Point 51 °F    
Average Humidity 65    
Maximum Humidity 96    
Minimum Humidity 33    
Precipitation  
Precipitation 0.00 in 0.15 in 7.95 in (1984)
Month to date precipitation 3.40 4.32  
Year to date precipitation 60.49 49.80  
Sea Level Pressure  
Sea Level Pressure 30.10 in    
Wind  
Wind Speed 3 mph (North)    
Max Wind Speed 14 mph    
Max Gust Speed 20 mph    
Visibility 6 miles    
Events Fog    
T = Trace of Precipitation, MM = Missing Value Source: NWS Daily Summary

Daily Weather History Graph

Daily Weather History Graph

Search for Another Location

Airport:

Trip Planner

Search our weather history database for the weather conditions in past years. The results will help you decide how hot, cold, wet, or windy it might be!

Date:

Astronomy

Oct. 23, 2013 Rise Set
Actual Time 7:15 AM CDT 6:28 PM CDT
Civil Twilight 6:50 AM CDT 6:52 PM CDT
Nautical Twilight 6:22 AM CDT 7:20 PM CDT
Astronomical Twilight 5:54 AM CDT 7:48 PM CDT
Moon 10:09 PM CDT (10/23) 11:21 AM CDT (10/23)
Length of Visible Light 12h 01m
Length of Day
11h 13m
Waning Gibbous, 79% of the Moon is Illuminated
Oct 23
Waning Gibbous
Oct 26
Last Quarter
Nov 3
New
Nov 9
First Quarter
Nov 17
Full

Hourly Weather History & Observations

Time (CDT) Temp. Dew Point Humidity Pressure Visibility Wind Dir Wind Speed Gust Speed Precip Events Conditions
12:53 AM 57.0 °F 55.0 °F 93% 30.06 in 5.0 mi Calm Calm - N/A   Clear
1:53 AM 55.9 °F 54.0 °F 93% 30.07 in 6.0 mi Calm Calm - N/A   Clear
2:53 AM 54.0 °F 51.1 °F 90% 30.06 in 9.0 mi Calm Calm - N/A   Clear
3:53 AM 53.1 °F 51.1 °F 93% 30.06 in 8.0 mi Calm Calm - N/A   Clear
4:53 AM 55.0 °F 52.0 °F 89% 30.06 in 5.0 mi Calm Calm - N/A   Clear
5:32 AM 53.6 °F 51.8 °F 94% 30.08 in 1.5 mi Calm Calm - N/A   Clear
5:42 AM 53.6 °F 51.8 °F 94% 30.08 in 0.8 mi Calm Calm - N/A   Clear
5:53 AM 52.0 °F 50.0 °F 93% 30.08 in 0.8 mi Calm Calm - N/A   Clear
6:04 AM 51.8 °F 50.0 °F 94% 30.09 in 1.2 mi Calm Calm - N/A   Clear
6:14 AM 51.8 °F 50.0 °F 94% 30.09 in 3.0 mi Calm Calm - N/A   Clear
6:20 AM 51.8 °F 50.0 °F 94% 30.09 in 1.8 mi Calm Calm - N/A   Clear
6:44 AM 51.8 °F 48.2 °F 88% 30.10 in 4.0 mi Calm Calm - N/A   Clear
6:53 AM 51.1 °F 48.9 °F 92% 30.10 in 1.8 mi Calm Calm - N/A   Clear
7:01 AM 51.8 °F 48.2 °F 88% 30.11 in 3.0 mi Calm Calm - N/A   Clear
7:09 AM 51.8 °F 50.0 °F 94% 30.11 in 1.8 mi Calm Calm - N/A   Clear
7:18 AM 51.8 °F 50.0 °F 94% 30.11 in 0.5 mi Calm Calm - N/A Fog Fog
7:35 AM 51.8 °F 50.0 °F 94% 30.11 in 1.8 mi Calm Calm - N/A   Clear
7:53 AM 53.1 °F 52.0 °F 96% 30.11 in 2.5 mi Calm Calm - N/A   Clear
8:00 AM 53.6 °F 53.6 °F 100% 30.12 in 4.0 mi Calm Calm - N/A   Clear
8:53 AM 60.1 °F 55.0 °F 83% 30.13 in 10.0 mi Calm Calm - N/A   Clear
9:53 AM 64.9 °F 54.0 °F 68% 30.14 in 10.0 mi NNW 5.8 mph - N/A   Clear
10:53 AM 70.0 °F 52.0 °F 53% 30.14 in 10.0 mi NNE 6.9 mph - N/A   Clear
11:53 AM 72.0 °F 52.0 °F 49% 30.14 in 10.0 mi NNE 8.1 mph - N/A   Clear
12:53 PM 75.0 °F 52.0 °F 44% 30.12 in 10.0 mi NE 5.8 mph - N/A   Clear
1:53 PM 78.1 °F 51.1 °F 39% 30.09 in 10.0 mi NE 6.9 mph - N/A   Clear
2:53 PM 78.1 °F 48.0 °F 35% 30.08 in 10.0 mi NNW 8.1 mph - N/A   Clear
3:53 PM 78.1 °F 48.0 °F 35% 30.08 in 10.0 mi North 10.4 mph - N/A   Clear
4:53 PM 77.0 °F 46.0 °F 33% 30.08 in 10.0 mi North 11.5 mph - N/A   Clear
5:53 PM 73.0 °F 50.0 °F 44% 30.09 in 10.0 mi North 6.9 mph - N/A   Clear
6:53 PM 66.9 °F 50.0 °F 54% 30.11 in 10.0 mi North 5.8 mph - N/A   Clear
7:53 PM 66.0 °F 52.0 °F 60% 30.12 in 10.0 mi NNE 4.6 mph - N/A   Clear
8:53 PM 63.0 °F 52.0 °F 67% 30.14 in 10.0 mi Calm Calm - N/A   Clear
9:53 PM 59.0 °F 53.1 °F 81% 30.14 in 10.0 mi Calm Calm - N/A   Clear
10:53 PM 55.9 °F 53.1 °F 90% 30.15 in 10.0 mi Calm Calm - N/A   Clear
11:53 PM 57.0 °F 53.1 °F 87% 30.14 in 10.0 mi Calm Calm - N/A   Clear